HST 1 20580U 90037B 25102.73142639 .00010590 00000-0 41129-3 0 9994 2 20580 28.4669 128.3345 0002315 96.8250 263.2608 15.24397518722686 ISS (ZARYA) 1 25544U 98067A 25103.13189730 .00016876 00000-0 30834-3 0 9992 2 25544 51.6361 269.2466 0005074 35.3494 324.7831 15.49497756505075 CXO 1 25867U 99040B 25105.96914894 .00000895 00000-0 00000+0 0 9994 2 25867 48.1030 132.8028 8515445 308.4124 0.0837 0.37808205 26867